Regional Weather Roundup
Issued by NWS Cleveland, OH

Home | Current Version | Previous Version | Graphics & Text | Print | Product List | Glossary On
Versions: 1 2 3 4 5 6 7 8 9 10 11 12 13 14 15 16 17 18 19 20 21 22 23 24 25 26 27 28 29 30 31 32 33 34 35 36 37 38 39 40 41 42 43 44 45 46 47 48 49 50
000
ASUS41 KCLE 210200
RWRCLE
OHIO REGIONAL WEATHER ROUNDUP
NATIONAL WEATHER SERVICE WILMINGTON, OH
900 PM EST THU NOV 20 2014

NOTE: "FAIR" INDICATES FEW OR NO CLOUDS BELOW 12,000 FEET WITH NO
SIGNIFICANT WEATHER AND/OR OBSTRUCTIONS TO VISIBILITY.

OHZ001>008-015>018-024>027-034-035-043-044-210300-
   NORTHWEST OHIO

CITY           SKY/WX    TMP DP  RH WIND       PRES   REMARKS
DEFIANCE       PTCLDY    22   7  52 W6        30.14R WCI  14
FINDLAY        CLEAR     22  14  71 W10       30.13R WCI  11
TOLEDO EXPRESS MOCLDY    20  11  68 W8        30.13R WCI  10
TOLEDO METCALF MOCLDY    20  10  65 W7        30.14R WCI  11
LIMA           PTCLDY    23  15  71 W12       30.13R WCI  12
$$

OHZ009>014-019>023-028>033-038-089-210300-
   NORTHEAST OHIO

CITY           SKY/WX    TMP DP  RH WIND       PRES   REMARKS
CLE-HOPKINS    FLURRIES  23  17  78 SW15      30.12R WCI  10
CLE-LAKEFRONT  LGT SNOW  25  18  74 SW25G32   30.09R WCI   9
CUY CO. ARPT   LGT SNOW  27  23  86 W17G29    30.06R WCI  14
LORAIN-ELYRIA  FLURRIES  23  18  81 W13       30.11R WCI  11
ASHTABULA      HVY SNOW  22  19  89 W18G24    30.05R VSB 1/4 WCI   7
AKRON-CANTON   PTCLDY    24  11  57 W16G23    30.08R WCI  11
WOOSTER        NOT AVBL
MANSFIELD      LGT SNOW  22  14  71 SW13G24   30.09R WCI  10
YOUNGSTOWN     LGT SNOW  20  17  88 W10       30.05R FOG     WCI   9
$$

OHZ042-051>053-060>062-070>072-077>081-210300-
  SOUTHWEST OHIO

CITY           SKY/WX    TMP DP  RH WIND       PRES   REMARKS
CINC-COVINGTON CLEAR     25  13  60 W7        30.21R WCI  17
CINC-LUNKEN    CLEAR     25  15  66 SW6       30.25R WCI  18
HAMILTON       CLEAR     18  13  80 CALM      30.23R
DAYTON         NOT AVBL
WRIGHT-PAT AFB NOT AVBL
DAYTON GENERAL CLEAR     23  13  65 W3        30.19R
WILMINGTON     CLEAR     24  13  62 W9        30.18R WCI  14
$$

OHZ036-037-039>041-045>050-054>059-063>069-073>076-082>088-210300-
  CENTRAL AND SOUTHEAST OHIO

CITY           SKY/WX    TMP DP  RH WIND       PRES   REMARKS
COLUMBUS       PTCLDY    23  13  65 W8        30.18R WCI  14
OSU AIRPORT    MOCLDY    23  13  65 W10       30.16S WCI  12
BOLTON FIELD   NOT AVBL
RICKENBACK AFB NOT AVBL
NEWARK         MOCLDY    25  14  63 W9        30.16R WCI  15
MARION         CLOUDY    25  14  63 W16       30.13R WCI  12
LANCASTER      CLOUDY    24  14  65 W6        30.18R WCI  17
ZANESVILLE     MOCLDY    23  13  65 W7        30.16R WCI  15
NEW PHILLY     CLOUDY    26  14  60 W6G20     30.14R WCI  19
$$



USA.gov is the U.S. government's official web portal to all federal, state and local government web resources and services.